Rouyn Airport, Quebec

5:18 AM ADT on May 27, 2017 (GMT -0300)
Rouyn Airport

Weather History for CYUY - January, 2012

Change the Weather History Date:

Thursday, January 5, 2012

  Actual Average Record
Temperature  
Mean Temperature 5 °F -  
Max Temperature 15 °F - - ()
Min Temperature -5 °F - - ()
Degree Days  
Heating Degree Days 60    
Moisture  
Dew Point -2 °F    
Average Humidity 75    
Maximum Humidity 86    
Minimum Humidity 56    
Precipitation  
Precipitation 0.00 in - - ()
Sea Level Pressure  
Sea Level Pressure 29.84 in    
Wind  
Wind Speed 7 mph ()    
Max Wind Speed 15 mph    
Max Gust Speed 24 mph    
Visibility 13.2 miles    
Events Snow    
T = Trace of Precipitation, MM = Missing Value Source: Averaged Metar Reports

Daily Weather History Graph

Daily Weather History Graph

Search for Another Location

Airport or City:

Trip Planner

Search our weather history database for the weather conditions in past years. The results will help you decide how hot, cold, wet, or windy it might be!

Date:

Astronomy

Jan. 05, 2012 Rise Set
Actual Time 9:05 AM AST 5:35 PM AST
Civil Twilight 8:29 AM AST 6:11 PM AST
Nautical Twilight 7:49 AM AST 6:51 PM AST
Astronomical Twilight 7:12 AM AST 7:29 PM AST
Moon 2:37 PM AST (1/5) 5:49 AM AST (1/5)
Length of Visible Light 9h 42m
Length of Day
8h 30m
Waxing Gibbous, 87% of the Moon is Illuminated
Jan 5
Waxing Gibbous
Jan 9
Full
Jan 16
Last Quarter
Jan 23
New
Jan 31
First Quarter

Hourly Weather History & Observations

Time (AST) Temp. Windchill Dew Point Humidity Pressure Visibility Wind Dir Wind Speed Gust Speed Precip Events Conditions
12:00 AM 14.0 °F 2.9 °F 10.4 °F 86% 29.73 in 15.0 mi West 8.1 mph - N/A Snow Light Snow
1:00 AM 12.2 °F 0.7 °F 8.6 °F 85% 29.72 in 15.0 mi WSW 8.1 mph - N/A Snow Light Snow
2:00 AM 14.0 °F 2.9 °F 10.4 °F 86% 29.71 in 3.0 mi WSW 8.1 mph - N/A Snow Light Snow
3:00 AM 15.8 °F 5.1 °F 12.2 °F 86% 29.72 in 10.0 mi West 8.1 mph - N/A Snow Light Snow
4:00 AM 15.8 °F 2.7 °F 10.4 °F 79% 29.73 in 5.0 mi NW 11.5 mph - N/A Snow Light Snow
5:00 AM 14.0 °F -1.4 °F 8.6 °F 79% 29.76 in 10.0 mi NW 15.0 mph 24.2 mph N/A Snow Light Snow
6:00 AM 8.6 °F -7.0 °F 1.4 °F 73% 29.80 in 15.0 mi NW 12.7 mph 21.9 mph N/A Snow Light Snow
7:00 AM 3.2 °F -11.3 °F -4.0 °F 72% 29.84 in 15.0 mi NW 9.2 mph - N/A   Scattered Clouds
8:00 AM -0.4 °F -14.7 °F -7.6 °F 72% 29.87 in 15.0 mi NW 8.1 mph - N/A   Partly Cloudy
8:13 AM - - - N/A% - 15.0 mi NNW 6.9 mph - N/A   Unknown
9:00 AM -0.4 °F -14.7 °F -7.6 °F 72% 29.88 in 15.0 mi NNW 8.1 mph - N/A Snow Light Snow Showers
10:00 AM -2.2 °F -10.4 °F -7.6 °F 78% 29.91 in 12.0 mi NNE 3.5 mph - N/A Snow Light Snow Showers
11:00 AM -0.4 °F -14.7 °F -7.6 °F 72% 29.93 in 15.0 mi NNW 8.1 mph - N/A   Partly Cloudy
11:28 AM - - - N/A% - 15.0 mi WNW 5.8 mph - N/A   Unknown
12:00 PM 1.4 °F -11.3 °F -5.8 °F 72% 29.94 in 10.0 mi NW 6.9 mph - N/A Snow Light Snow Showers
12:51 PM - - - N/A% - 15.0 mi NW 8.1 mph - N/A   Partly Cloudy
1:00 PM 1.4 °F -12.5 °F -7.6 °F 66% 29.93 in 15.0 mi WNW 8.1 mph - N/A   Partly Cloudy
2:00 PM 3.2 °F -10.3 °F -7.6 °F 61% 29.91 in 15.0 mi WNW 8.1 mph - N/A   Partly Cloudy
3:00 PM 5.0 °F -2.1 °F -7.6 °F 56% 29.90 in 15.0 mi West 3.5 mph - N/A   Partly Cloudy
4:00 PM 5.0 °F -4.1 °F -5.8 °F 61% 29.89 in 15.0 mi WSW 4.6 mph - N/A   Mostly Cloudy
5:00 PM 3.2 °F -6.2 °F -5.8 °F 66% 29.89 in 15.0 mi WSW 4.6 mph - N/A   Mostly Cloudy
6:00 PM -0.4 °F -8.3 °F -5.8 °F 78% 29.87 in 15.0 mi SSE 3.5 mph - N/A   Scattered Clouds
7:00 PM -5.8 °F -14.5 °F -11.2 °F 77% 29.87 in 15.0 mi ESE 3.5 mph - N/A   Mostly Cloudy
8:00 PM -0.4 °F -8.3 °F -5.8 °F 78% 29.88 in 15.0 mi SSE 3.5 mph - N/A   Mostly Cloudy
9:00 PM 1.4 °F -11.3 °F -4.0 °F 78% 29.87 in 15.0 mi SSE 6.9 mph - N/A   Overcast
10:00 PM 1.4 °F -9.9 °F -4.0 °F 78% 29.84 in 15.0 mi ESE 5.8 mph - N/A   Overcast
10:38 PM - - - N/A% - 15.0 mi SE 6.9 mph - N/A   Unknown
11:00 PM 3.2 °F -7.8 °F -2.2 °F 78% 29.83 in 15.0 mi SE 5.8 mph - N/A Snow Light Snow
11:55 PM - - - N/A% - 2.5 mi SE 5.8 mph - N/A   Unknown